Time,TemperatureF,DewpointF,PressureIn,WindDirection,WindDirectionDegrees,WindSpeedMPH,WindSpeedGustMPH,Humidity,HourlyPrecipIn,Conditions,Clouds,dailyrainin,SolarRadiationWatts/m^2,SoftwareType,DateUTC
2014-09-02 00:06:00,84.3,74.0,29.81,SSE,161,8.0,14.0,70,0.00,,,0.00,0,weatherlink.com 1.10,2014-09-02 05:06:00,
2014-09-02 00:21:00,84.0,74.0,29.81,SSE,154,3.0,13.0,71,0.00,,,0.00,0,weatherlink.com 1.10,2014-09-02 05:21:00,
2014-09-02 00:36:00,83.7,74.0,29.81,SSE,166,5.0,13.0,72,0.00,,,0.00,0,weatherlink.com 1.10,2014-09-02 05:36:00,
2014-09-02 00:51:00,83.6,74.0,29.82,SSE,154,6.0,11.0,73,0.00,,,0.00,0,weatherlink.com 1.10,2014-09-02 05:51:00,
2014-09-02 01:06:00,83.2,75.0,29.82,SSE,166,4.0,10.0,75,0.00,,,0.00,0,weatherlink.com 1.10,2014-09-02 06:06:00,
2014-09-02 01:21:00,83.0,74.0,29.82,SSE,163,5.0,13.0,75,0.00,,,0.00,0,weatherlink.com 1.10,2014-09-02 06:21:00,
2014-09-02 01:36:00,82.8,75.0,29.82,SSE,154,12.0,13.0,76,0.00,,,0.00,0,weatherlink.com 1.10,2014-09-02 06:36:00,
2014-09-02 01:51:00,82.5,74.0,29.82,SSE,168,6.0,12.0,76,0.00,,,0.00,0,weatherlink.com 1.10,2014-09-02 06:51:00,
2014-09-02 02:06:00,82.2,74.0,29.81,SSE,166,5.0,12.0,77,0.00,,,0.00,0,weatherlink.com 1.10,2014-09-02 07:06:00,
2014-09-02 02:21:00,82.0,74.0,29.81,South,177,5.0,13.0,77,0.00,,,0.00,0,weatherlink.com 1.10,2014-09-02 07:21:00,
2014-09-02 02:36:00,81.6,74.0,29.81,South,183,7.0,13.0,78,0.00,,,0.00,0,weatherlink.com 1.10,2014-09-02 07:36:00,
2014-09-02 02:51:00,81.3,74.0,29.80,South,183,4.0,11.0,78,0.00,,,0.00,0,weatherlink.com 1.10,2014-09-02 07:51:00,
2014-09-02 03:06:00,80.9,74.0,29.80,South,181,6.0,11.0,79,0.00,,,0.00,0,weatherlink.com 1.10,2014-09-02 08:06:00,
2014-09-02 03:21:00,80.4,74.0,29.80,South,172,6.0,10.0,80,0.00,,,0.00,0,weatherlink.com 1.10,2014-09-02 08:21:00,
2014-09-02 03:36:00,80.0,74.0,29.80,SSE,158,5.0,10.0,81,0.00,,,0.00,0,weatherlink.com 1.10,2014-09-02 08:36:00,
2014-09-02 03:51:00,79.7,74.0,29.80,South,177,6.0,11.0,82,0.00,,,0.00,0,weatherlink.com 1.10,2014-09-02 08:51:00,
2014-09-02 04:06:00,79.5,74.0,29.80,South,180,4.0,11.0,83,0.00,,,0.00,0,weatherlink.com 1.10,2014-09-02 09:06:00,
2014-09-02 04:21:00,79.2,74.0,29.80,South,176,4.0,10.0,83,0.00,,,0.00,0,weatherlink.com 1.10,2014-09-02 09:21:00,
2014-09-02 04:36:00,78.9,74.0,29.80,South,171,4.0,7.0,85,0.00,,,0.00,0,weatherlink.com 1.10,2014-09-02 09:36:00,
2014-09-02 04:51:00,78.6,74.0,29.80,South,172,6.0,9.0,86,0.00,,,0.00,0,weatherlink.com 1.10,2014-09-02 09:51:00,
2014-09-02 05:06:00,78.4,74.0,29.80,South,187,6.0,8.0,87,0.00,,,0.00,0,weatherlink.com 1.10,2014-09-02 10:06:00,
2014-09-02 05:21:00,78.4,74.0,29.80,South,177,6.0,12.0,87,0.00,,,0.00,0,weatherlink.com 1.10,2014-09-02 10:21:00,
2014-09-02 05:36:00,78.4,75.0,29.81,South,171,5.0,9.0,88,0.00,,,0.00,0,weatherlink.com 1.10,2014-09-02 10:36:00,
2014-09-02 05:52:00,78.3,75.0,29.81,South,179,5.0,10.0,88,0.00,,,0.00,0,weatherlink.com 1.10,2014-09-02 10:52:00,
2014-09-02 06:07:00,78.2,75.0,29.81,South,174,5.0,9.0,89,0.00,,,0.00,0,weatherlink.com 1.10,2014-09-02 11:07:00,
2014-09-02 06:22:00,78.5,75.0,29.82,South,181,8.0,12.0,89,0.00,,,0.00,0,weatherlink.com 1.10,2014-09-02 11:22:00,
2014-09-02 06:37:00,78.8,75.0,29.82,South,172,5.0,12.0,89,0.00,,,0.00,0,weatherlink.com 1.10,2014-09-02 11:37:00,
2014-09-02 06:52:00,79.0,75.0,29.82,South,174,5.0,14.0,88,0.00,,,0.00,0,weatherlink.com 1.10,2014-09-02 11:52:00,
2014-09-02 07:07:00,79.3,76.0,29.83,South,171,10.0,16.0,88,0.00,,,0.00,0,weatherlink.com 1.10,2014-09-02 12:07:00,
2014-09-02 07:22:00,79.2,75.0,29.84,South,169,5.0,15.0,88,0.00,,,0.00,14,weatherlink.com 1.10,2014-09-02 12:22:00,
2014-09-02 07:37:00,79.2,76.0,29.85,South,170,8.0,13.0,89,0.00,,,0.00,23,weatherlink.com 1.10,2014-09-02 12:37:00,
2014-09-02 07:52:00,79.3,76.0,29.85,South,185,7.0,11.0,89,0.00,,,0.00,53,weatherlink.com 1.10,2014-09-02 12:52:00,
2014-09-02 08:07:00,79.6,76.0,29.86,South,172,5.0,12.0,88,0.00,,,0.00,81,weatherlink.com 1.10,2014-09-02 13:07:00,
2014-09-02 08:22:00,80.0,76.0,29.86,South,183,8.0,15.0,87,0.00,,,0.00,107,weatherlink.com 1.10,2014-09-02 13:22:00,
2014-09-02 08:37:00,80.6,76.0,29.87,South,185,8.0,13.0,86,0.00,,,0.00,285,weatherlink.com 1.10,2014-09-02 13:37:00,
2014-09-02 08:52:00,81.3,76.0,29.87,South,183,9.0,16.0,84,0.00,,,0.00,165,weatherlink.com 1.10,2014-09-02 13:52:00,
2014-09-02 09:07:00,81.9,76.0,29.87,SSW,200,8.0,17.0,83,0.00,,,0.00,160,weatherlink.com 1.10,2014-09-02 14:07:00,
2014-09-02 09:22:00,82.3,76.0,29.88,SSW,193,9.0,18.0,80,0.00,,,0.00,171,weatherlink.com 1.10,2014-09-02 14:22:00,
2014-09-02 09:37:00,83.0,76.0,29.88,SSW,212,10.0,15.0,79,0.00,,,0.00,404,weatherlink.com 1.10,2014-09-02 14:37:00,
2014-09-02 09:52:00,84.9,75.0,29.88,SSW,192,13.0,21.0,73,0.00,,,0.00,325,weatherlink.com 1.10,2014-09-02 14:52:00,
2014-09-02 10:07:00,85.1,76.0,29.88,SSE,152,11.0,21.0,74,0.00,,,0.00,654,weatherlink.com 1.10,2014-09-02 15:07:00,
2014-09-02 10:22:00,85.7,76.0,29.89,SSW,208,13.0,19.0,73,0.00,,,0.00,640,weatherlink.com 1.10,2014-09-02 15:22:00,
2014-09-02 10:37:00,86.3,76.0,29.89,South,172,8.0,16.0,71,0.00,,,0.00,714,weatherlink.com 1.10,2014-09-02 15:37:00,
2014-09-02 10:52:00,85.1,75.0,29.89,SSW,210,6.0,17.0,71,0.00,,,0.00,109,weatherlink.com 1.10,2014-09-02 15:52:00,
2014-09-02 11:07:00,86.1,76.0,29.89,South,189,10.0,15.0,71,0.00,,,0.00,696,weatherlink.com 1.10,2014-09-02 16:07:00,
2014-09-02 11:22:00,87.7,76.0,29.89,SW,235,5.0,14.0,68,0.00,,,0.00,742,weatherlink.com 1.10,2014-09-02 16:22:00,
2014-09-02 11:37:00,88.4,75.0,29.90,SSE,158,9.0,16.0,65,0.00,,,0.00,877,weatherlink.com 1.10,2014-09-02 16:37:00,
2014-09-02 11:53:00,88.8,75.0,29.90,SSW,208,4.0,11.0,64,0.00,,,0.00,853,weatherlink.com 1.10,2014-09-02 16:53:00,
2014-09-02 12:08:00,89.0,74.0,29.91,South,177,7.0,14.0,62,0.00,,,0.00,932,weatherlink.com 1.10,2014-09-02 17:08:00,
2014-09-02 12:53:00,90.3,75.0,29.90,South,177,3.0,11.0,60,0.00,,,0.00,172,weatherlink.com 1.10,2014-09-02 17:53:00,
2014-09-02 13:08:00,90.4,75.0,29.89,SSW,193,8.0,9.0,60,0.00,,,0.00,315,weatherlink.com 1.10,2014-09-02 18:08:00,
2014-09-02 13:23:00,91.8,74.0,29.89,SE,135,4.0,13.0,57,0.00,,,0.00,283,weatherlink.com 1.10,2014-09-02 18:23:00,
2014-09-02 13:38:00,91.0,74.0,29.88,SE,143,0.0,5.0,58,0.00,,,0.00,176,weatherlink.com 1.10,2014-09-02 18:38:00,
2014-09-02 13:53:00,92.0,74.0,29.87,South,188,2.0,4.0,55,0.00,,,0.00,225,weatherlink.com 1.10,2014-09-02 18:53:00,
2014-09-02 14:08:00,93.4,74.0,29.87,ESE,123,4.0,9.0,54,0.00,,,0.00,926,weatherlink.com 1.10,2014-09-02 19:08:00,
2014-09-02 14:23:00,94.1,73.0,29.86,South,169,4.0,9.0,51,0.00,,,0.00,258,weatherlink.com 1.10,2014-09-02 19:23:00,
2014-09-02 14:38:00,94.2,75.0,29.85,South,191,3.0,9.0,53,0.00,,,0.00,888,weatherlink.com 1.10,2014-09-02 19:38:00,
2014-09-02 14:53:00,93.9,73.0,29.85,SE,141,2.0,10.0,51,0.00,,,0.00,149,weatherlink.com 1.10,2014-09-02 19:53:00,
2014-09-02 15:08:00,94.6,72.0,29.84,South,172,3.0,11.0,48,0.00,,,0.00,223,weatherlink.com 1.10,2014-09-02 20:08:00,
2014-09-02 15:23:00,95.7,74.0,29.83,SE,130,6.0,12.0,50,0.00,,,0.00,824,weatherlink.com 1.10,2014-09-02 20:23:00,
2014-09-02 15:38:00,95.7,74.0,29.82,SE,137,9.0,11.0,49,0.00,,,0.00,708,weatherlink.com 1.10,2014-09-02 20:38:00,
2014-09-02 15:53:00,95.4,74.0,29.81,SSE,165,6.0,10.0,50,0.00,,,0.00,694,weatherlink.com 1.10,2014-09-02 20:53:00,
2014-09-02 16:08:00,94.9,73.0,29.81,SE,129,7.0,12.0,50,0.00,,,0.00,668,weatherlink.com 1.10,2014-09-02 21:08:00,
2014-09-02 16:23:00,95.3,74.0,29.81,SSE,162,10.0,14.0,50,0.00,,,0.00,693,weatherlink.com 1.10,2014-09-02 21:23:00,
2014-09-02 16:38:00,95.2,74.0,29.80,ESE,120,5.0,13.0,50,0.00,,,0.00,654,weatherlink.com 1.10,2014-09-02 21:38:00,
2014-09-02 16:53:00,94.5,73.0,29.80,SE,135,6.0,12.0,50,0.00,,,0.00,95,weatherlink.com 1.10,2014-09-02 21:53:00,
2014-09-02 17:08:00,95.4,74.0,29.79,SE,127,11.0,12.0,50,0.00,,,0.00,492,weatherlink.com 1.10,2014-09-02 22:08:00,
2014-09-02 17:23:00,95.4,72.0,29.79,SSE,154,7.0,18.0,47,0.00,,,0.00,441,weatherlink.com 1.10,2014-09-02 22:23:00,
2014-09-02 17:38:00,95.3,73.0,29.79,SE,145,9.0,14.0,48,0.00,,,0.00,408,weatherlink.com 1.10,2014-09-02 22:38:00,
2014-09-02 17:53:00,94.2,75.0,29.79,ESE,110,12.0,22.0,54,0.00,,,0.00,364,weatherlink.com 1.10,2014-09-02 22:53:00,
2014-09-02 18:08:00,91.8,75.0,29.80,ESE,110,11.0,23.0,59,0.00,,,0.00,276,weatherlink.com 1.10,2014-09-02 23:08:00,
2014-09-02 18:23:00,91.8,75.0,29.79,SSE,149,12.0,24.0,58,0.00,,,0.00,251,weatherlink.com 1.10,2014-09-02 23:23:00,
2014-09-02 18:38:00,91.0,75.0,29.79,ESE,116,9.0,17.0,59,0.00,,,0.00,216,weatherlink.com 1.10,2014-09-02 23:38:00,
2014-09-02 18:53:00,90.5,75.0,29.79,SSE,151,5.0,16.0,61,0.00,,,0.00,163,weatherlink.com 1.10,2014-09-02 23:53:00,